When you browse on this site, cookies collect data to enhance your experience and personalize the content and advertising you see.
Visit our Privacy Policy to learn more. By continuing to use the site, you agree to this use of cookies and data.
  • En España
  • Lista de países
  • Para 7 días
  • Temperatura del agua
  • El tiempo en el mapa
  • Informadores
  • user-avatar
    Iniciar sesión

    Tiempo cada hora Turin

    Hoy, 4 Junio, Jueves

    Tiempo Temperatura Precipitaciones Viento Presión Humedad
    00:00 +18°C° 0.4 mm 1 mps 731 mmHg 91%
    01:00 +16°C° 0.4 mm 1 mps 731 mmHg 91%
    02:00 +16°C° 0.3 mm 1 mps 730 mmHg 91%
    03:00 +16°C° 0.3 mm 1 mps 730 mmHg 92%
    04:00 +15°C° 0.3 mm 0 mps 729 mmHg 92%
    05:00 +18°C° 0.1 mm 1 mps 729 mmHg 91%
    06:00 +18°C° 0.1 mm 1 mps 728 mmHg 91%
    07:00 +18°C° 0.1 mm 1 mps 728 mmHg 90%
    08:00 +19°C° 0.8 mm 1 mps 728 mmHg 90%
    09:00 +18°C° 0.8 mm 2 mps 728 mmHg 89%
    10:00 +18°C° 0.8 mm 2 mps 728 mmHg 89%
    11:00 +18°C° 0.8 mm 2 mps 728 mmHg 86%
    12:00 +19°C° 0.8 mm 2 mps 727 mmHg 83%
    13:00 +20°C° 0.8 mm 2 mps 727 mmHg 80%
    14:00 +19°C° 0.8 mm 2 mps 727 mmHg 82%
    15:00 +19°C° 0.8 mm 2 mps 726 mmHg 85%
    16:00 +18°C° 0.8 mm 2 mps 726 mmHg 87%
    17:00 +18°C° 1.2 mm 2 mps 725 mmHg 89%
    18:00 +17°C° 1.2 mm 2 mps 725 mmHg 91%
    19:00 +18°C° 1.2 mm 1 mps 725 mmHg 93%
    20:00 +16°C° 0.8 mm 1 mps 725 mmHg 93%
    21:00 +16°C° 0.8 mm 1 mps 725 mmHg 93%
    22:00 +16°C° 0.8 mm 2 mps 725 mmHg 94%
    23:00 +15°C° 0.2 mm 1 mps 725 mmHg 93%

    Mañana, 5 Junio, Viernes

    Tiempo Temperatura Precipitaciones Viento Presión Humedad
    00:00 +15°C° 0.2 mm 1 mps 725 mmHg 92%
    01:00 +14°C° 0.2 mm 1 mps 726 mmHg 91%
    02:00 +14°C° 0 mm 1 mps 725 mmHg 91%
    03:00 +13°C° 0 mm 1 mps 725 mmHg 90%
    04:00 +13°C° 0 mm 1 mps 725 mmHg 90%
    05:00 +14°C° 0 mm 1 mps 725 mmHg 86%
    06:00 +15°C° 0 mm 1 mps 726 mmHg 83%
    07:00 +16°C° 0 mm 1 mps 726 mmHg 79%
    08:00 +19°C° 0 mm 1 mps 726 mmHg 72%
    09:00 +20°C° 0 mm 1 mps 727 mmHg 64%
    10:00 +22°C° 0 mm 1 mps 727 mmHg 57%
    11:00 +23°C° 0 mm 1 mps 727 mmHg 53%
    12:00 +24°C° 0 mm 1 mps 728 mmHg 49%
    13:00 +25°C° 0 mm 1 mps 728 mmHg 46%
    14:00 +25°C° 0 mm 2 mps 728 mmHg 46%
    15:00 +26°C° 0 mm 2 mps 728 mmHg 46%
    16:00 +26°C° 0 mm 2 mps 729 mmHg 46%
    17:00 +25°C° 0 mm 2 mps 729 mmHg 51%
    18:00 +24°C° 0 mm 2 mps 729 mmHg 56%
    19:00 +23°C° 0 mm 2 mps 730 mmHg 62%
    20:00 +20°C° 0 mm 2 mps 730 mmHg 61%
    21:00 +19°C° 0 mm 2 mps 731 mmHg 59%
    22:00 +17°C° 0 mm 2 mps 732 mmHg 58%
    23:00 +17°C° 0 mm 2 mps 732 mmHg 59%

    Pasado mañana, 6 Junio, Sábado

    Tiempo Temperatura Precipitaciones Viento Presión Humedad
    00:00 +16°C° 0 mm 2 mps 732 mmHg 59%
    01:00 +16°C° 0 mm 1 mps 732 mmHg 59%
    02:00 +15°C° 0 mm 1 mps 732 mmHg 62%
    03:00 +15°C° 0 mm 1 mps 732 mmHg 64%
    04:00 +14°C° 0 mm 1 mps 733 mmHg 67%
    05:00 +15°C° 0 mm 1 mps 733 mmHg 67%
    06:00 +16°C° 0 mm 1 mps 733 mmHg 67%
    07:00 +16°C° 0 mm 0 mps 733 mmHg 67%
    08:00 +20°C° 0 mm 1 mps 733 mmHg 65%
    09:00 +21°C° 0 mm 1 mps 733 mmHg 64%
    10:00 +23°C° 0 mm 1 mps 733 mmHg 63%
    11:00 +23°C° 0.1 mm 1 mps 733 mmHg 61%
    12:00 +24°C° 0.1 mm 1 mps 733 mmHg 58%
    13:00 +25°C° 0.1 mm 1 mps 733 mmHg 56%
    14:00 +25°C° 0.2 mm 1 mps 733 mmHg 58%
    15:00 +25°C° 0.2 mm 1 mps 733 mmHg 59%
    16:00 +25°C° 0.2 mm 2 mps 732 mmHg 61%
    17:00 +24°C° 0.3 mm 2 mps 733 mmHg 66%
    18:00 +23°C° 0.3 mm 2 mps 733 mmHg 72%
    19:00 +23°C° 0.3 mm 1 mps 733 mmHg 78%
    20:00 +21°C° 0.2 mm 1 mps 733 mmHg 81%
    21:00 +20°C° 0.2 mm 1 mps 733 mmHg 84%
    22:00 +19°C° 0.2 mm 1 mps 734 mmHg 86%
    23:00 +18°C° 0.2 mm 1 mps 734 mmHg 87%

    7 Junio, Domingo

    Tiempo Temperatura Precipitaciones Viento Presión Humedad
    00:00 +18°C° 0.2 mm 1 mps 733 mmHg 87%
    01:00 +16°C° 0.2 mm 1 mps 733 mmHg 87%
    02:00 +16°C° 0.3 mm 1 mps 733 mmHg 87%
    03:00 +16°C° 0.3 mm 1 mps 733 mmHg 87%
    04:00 +16°C° 0.3 mm 1 mps 733 mmHg 87%
    05:00 +16°C° 0.3 mm 1 mps 733 mmHg 87%
    06:00 +16°C° 0.3 mm 0 mps 733 mmHg 86%
    07:00 +17°C° 0.3 mm 0 mps 733 mmHg 85%
    08:00 +17°C° 1 mm 0 mps 733 mmHg 87%
    09:00 +19°C° 1 mm 1 mps 733 mmHg 89%
    10:00 +19°C° 1 mm 1 mps 733 mmHg 91%
    11:00 +20°C° 0.6 mm 1 mps 733 mmHg 86%
    12:00 +21°C° 0.6 mm 1 mps 733 mmHg 81%
    13:00 +22°C° 0.6 mm 1 mps 733 mmHg 76%
    14:00 +23°C° 0.2 mm 1 mps 733 mmHg 73%
    15:00 +23°C° 0.2 mm 1 mps 733 mmHg 70%
    16:00 +24°C° 0.2 mm 2 mps 733 mmHg 67%
    17:00 +23°C° 1.3 mm 2 mps 733 mmHg 74%
    18:00 +21°C° 1.3 mm 3 mps 733 mmHg 80%
    19:00 +19°C° 1.3 mm 4 mps 733 mmHg 87%
    20:00 +18°C° 1.2 mm 3 mps 733 mmHg 87%
    21:00 +17°C° 1.2 mm 2 mps 734 mmHg 88%
    22:00 +16°C° 1.2 mm 2 mps 734 mmHg 88%
    23:00 +16°C° 0.2 mm 1 mps 734 mmHg 87%

    8 Junio, Lunes

    Tiempo Temperatura Precipitaciones Viento Presión Humedad
    00:00 +16°C° 0.2 mm 1 mps 734 mmHg 85%
    01:00 +16°C° 0.2 mm 1 mps 734 mmHg 84%
    02:00 +16°C° 0 mm 1 mps 734 mmHg 83%
    03:00 +16°C° 0 mm 1 mps 734 mmHg 82%
    04:00 +15°C° 0 mm 1 mps 734 mmHg 81%
    05:00 +15°C° 0 mm 0 mps 734 mmHg 80%
    06:00 +15°C° 0 mm 0 mps 734 mmHg 80%
    07:00 +16°C° 0 mm 0 mps 734 mmHg 79%
    08:00 +19°C° 0 mm 1 mps 734 mmHg 77%
    09:00 +19°C° 0 mm 1 mps 734 mmHg 75%
    10:00 +19°C° 0 mm 2 mps 734 mmHg 73%
    11:00 +20°C° 0.3 mm 2 mps 734 mmHg 70%
    12:00 +21°C° 0.3 mm 2 mps 734 mmHg 67%
    13:00 +23°C° 0.3 mm 2 mps 734 mmHg 64%
    14:00 +23°C° 0.6 mm 2 mps 734 mmHg 65%
    15:00 +23°C° 0.6 mm 2 mps 734 mmHg 66%
    16:00 +23°C° 0.6 mm 2 mps 734 mmHg 67%
    17:00 +22°C° 1.6 mm 1 mps 734 mmHg 72%
    18:00 +21°C° 1.6 mm 1 mps 734 mmHg 77%
    19:00 +20°C° 1.6 mm 1 mps 734 mmHg 83%
    20:00 +19°C° 1.4 mm 1 mps 735 mmHg 84%
    21:00 +17°C° 1.4 mm 2 mps 735 mmHg 84%
    22:00 +16°C° 1.4 mm 2 mps 736 mmHg 85%
    23:00 +16°C° 1 mm 2 mps 736 mmHg 86%

    9 Junio, Martes

    Tiempo Temperatura Precipitaciones Viento Presión Humedad
    00:00 +16°C° 1 mm 2 mps 736 mmHg 86%
    01:00 +15°C° 1 mm 2 mps 736 mmHg 86%
    02:00 +15°C° 0.5 mm 1 mps 736 mmHg 87%
    03:00 +15°C° 0.5 mm 1 mps 736 mmHg 87%
    04:00 +15°C° 0.5 mm 1 mps 736 mmHg 87%
    05:00 +15°C° 0.1 mm 1 mps 736 mmHg 86%
    06:00 +15°C° 0.1 mm 1 mps 737 mmHg 86%
    07:00 +16°C° 0.1 mm 1 mps 737 mmHg 85%
    08:00 +18°C° 0.2 mm 1 mps 737 mmHg 81%
    09:00 +19°C° 0.2 mm 1 mps 737 mmHg 76%
    10:00 +20°C° 0.2 mm 1 mps 737 mmHg 71%
    11:00 +21°C° 0.7 mm 1 mps 737 mmHg 69%
    12:00 +21°C° 0.7 mm 1 mps 737 mmHg 67%
    13:00 +22°C° 0.7 mm 1 mps 737 mmHg 65%
    14:00 +22°C° 0.5 mm 1 mps 737 mmHg 63%
    15:00 +23°C° 0.5 mm 1 mps 737 mmHg 61%
    16:00 +23°C° 0.5 mm 1 mps 737 mmHg 59%
    17:00 +23°C° 0.3 mm 1 mps 737 mmHg 63%
    18:00 +20°C° 0.3 mm 0 mps 737 mmHg 67%
    19:00 +19°C° 0.3 mm 0 mps 737 mmHg 71%
    20:00 +20°C° 0.1 mm 1 mps 738 mmHg 72%
    21:00 +19°C° 0.1 mm 1 mps 738 mmHg 73%
    22:00 +16°C° 0.1 mm 2 mps 738 mmHg 74%
    23:00 +16°C° 0 mm 2 mps 738 mmHg 75%
    Mostrar más